Time,TemperatureF,DewpointF,PressureIn,WindDirection,WindDirectionDegrees,WindSpeedMPH,WindSpeedGustMPH,Humidity,HourlyPrecipIn,Conditions,Clouds,dailyrainin,SoftwareType,DateUTC
2013-03-22 00:11:00,33.1,26.1,29.77,East,90,4.7,-999.0,75,-99.99,,,0.00,Acu-Link.com,2013-03-22 05:11:00,
2013-03-22 00:42:00,32.0,26.2,29.77,ESE,112,4.7,-999.0,79,-99.99,,,0.00,Acu-Link.com,2013-03-22 05:42:00,
2013-03-22 00:57:00,31.3,25.6,29.77,ESE,112,3.2,-999.0,79,-99.99,,,0.00,Acu-Link.com,2013-03-22 05:57:00,
2013-03-22 01:12:00,31.5,25.8,29.77,ESE,112,3.2,-999.0,79,-99.99,,,0.00,Acu-Link.com,2013-03-22 06:12:00,
2013-03-22 01:27:00,32.2,26.1,29.77,ESE,112,2.7,-999.0,78,-99.99,,,0.00,Acu-Link.com,2013-03-22 06:27:00,
2013-03-22 01:57:00,32.5,25.8,29.77,ESE,112,0.0,-999.0,76,-99.99,,,0.00,Acu-Link.com,2013-03-22 06:57:00,
2013-03-22 02:12:00,32.5,26.1,29.77,ESE,112,2.7,-999.0,77,-99.99,,,0.00,Acu-Link.com,2013-03-22 07:12:00,
2013-03-22 02:27:00,32.7,26.0,29.77,ESE,112,4.7,-999.0,76,-99.99,,,0.00,Acu-Link.com,2013-03-22 07:27:00,
2013-03-22 02:43:00,32.9,25.5,29.77,ESE,112,5.3,-999.0,74,-99.99,,,0.00,Acu-Link.com,2013-03-22 07:43:00,
2013-03-22 02:58:00,32.9,25.5,29.77,ESE,112,3.7,-999.0,74,-99.99,,,0.00,Acu-Link.com,2013-03-22 07:58:00,
2013-03-22 03:13:00,33.1,26.4,29.76,ESE,112,4.2,-999.0,76,-99.99,,,0.00,Acu-Link.com,2013-03-22 08:13:00,
2013-03-22 03:28:00,33.1,25.7,29.76,ESE,112,4.7,-999.0,74,-99.99,,,0.00,Acu-Link.com,2013-03-22 08:28:00,
2013-03-22 03:43:00,33.1,25.4,29.75,SE,135,4.7,-999.0,73,-99.99,,,0.00,Acu-Link.com,2013-03-22 08:43:00,
2013-03-22 03:58:00,33.3,25.3,29.75,East,90,5.8,-999.0,72,-99.99,,,0.00,Acu-Link.com,2013-03-22 08:58:00,
2013-03-22 04:14:00,33.3,25.6,29.75,SE,135,5.8,-999.0,73,-99.99,,,0.00,Acu-Link.com,2013-03-22 09:14:00,
2013-03-22 04:29:00,33.3,25.6,29.75,SE,135,5.3,-999.0,73,-99.99,,,0.00,Acu-Link.com,2013-03-22 09:29:00,
2013-03-22 04:44:00,33.4,25.4,29.75,SE,135,4.7,-999.0,72,-99.99,,,0.00,Acu-Link.com,2013-03-22 09:44:00,
2013-03-22 04:59:00,33.3,25.6,29.74,SE,135,4.7,-999.0,73,-99.99,,,0.00,Acu-Link.com,2013-03-22 09:59:00,
2013-03-22 05:14:00,33.4,25.4,29.75,ESE,112,6.3,-999.0,72,-99.99,,,0.00,Acu-Link.com,2013-03-22 10:14:00,
2013-03-22 05:29:00,33.4,25.7,29.74,ESE,112,5.8,-999.0,73,-99.99,,,0.00,Acu-Link.com,2013-03-22 10:29:00,
2013-03-22 05:44:00,33.4,26.0,29.74,ESE,112,4.2,-999.0,74,-99.99,,,0.00,Acu-Link.com,2013-03-22 10:44:00,
2013-03-22 05:59:00,33.3,25.9,29.74,ESE,112,4.7,-999.0,74,-99.99,,,0.00,Acu-Link.com,2013-03-22 10:59:00,
2013-03-22 06:14:00,33.3,26.6,29.75,ESE,112,3.7,-999.0,76,-99.99,,,0.00,Acu-Link.com,2013-03-22 11:14:00,
2013-03-22 06:30:00,33.4,26.7,29.76,ESE,112,4.2,-999.0,76,-99.99,,,0.00,Acu-Link.com,2013-03-22 11:30:00,
2013-03-22 06:45:00,33.4,27.0,29.76,ESE,112,3.2,-999.0,77,-99.99,,,0.00,Acu-Link.com,2013-03-22 11:45:00,
2013-03-22 07:00:00,33.4,27.3,29.78,SE,135,2.7,-999.0,78,-99.99,,,0.00,Acu-Link.com,2013-03-22 12:00:00,
2013-03-22 07:15:00,33.6,27.8,29.77,ESE,112,3.2,-999.0,79,-99.99,,,0.00,Acu-Link.com,2013-03-22 12:15:00,
2013-03-22 07:30:00,33.6,27.8,29.77,East,90,4.7,-999.0,79,-99.99,,,0.00,Acu-Link.com,2013-03-22 12:30:00,
2013-03-22 07:45:00,33.8,28.3,29.78,SE,135,4.2,-999.0,80,-99.99,,,0.00,Acu-Link.com,2013-03-22 12:45:00,
2013-03-22 08:00:00,34.0,28.2,29.77,East,90,3.7,-999.0,79,-99.99,,,0.00,Acu-Link.com,2013-03-22 13:00:00,
2013-03-22 08:15:00,34.2,28.7,29.78,ESE,112,5.3,-999.0,80,-99.99,,,0.00,Acu-Link.com,2013-03-22 13:15:00,
2013-03-22 08:30:00,34.2,28.7,29.79,ESE,112,3.2,-999.0,80,-99.99,,,0.00,Acu-Link.com,2013-03-22 13:30:00,
2013-03-22 08:46:00,34.7,29.2,29.79,ESE,112,2.7,-999.0,80,-99.99,,,0.00,Acu-Link.com,2013-03-22 13:46:00,
2013-03-22 09:16:00,35.6,29.4,29.78,ESE,112,5.3,-999.0,78,-99.99,,,0.00,Acu-Link.com,2013-03-22 14:16:00,
2013-03-22 09:46:00,36.3,30.1,29.78,ESE,112,0.0,-999.0,78,-99.99,,,0.00,Acu-Link.com,2013-03-22 14:46:00,
2013-03-22 10:01:00,37.2,31.3,29.78,ESE,112,4.7,-999.0,79,-99.99,,,0.00,Acu-Link.com,2013-03-22 15:01:00,
2013-03-22 10:17:00,37.8,31.9,29.78,SE,135,6.3,-999.0,79,-99.99,,,0.00,Acu-Link.com,2013-03-22 15:17:00,
2013-03-22 10:32:00,38.5,32.2,29.78,ESE,112,4.7,-999.0,78,-99.99,,,0.00,Acu-Link.com,2013-03-22 15:32:00,
2013-03-22 10:47:00,38.8,31.9,29.77,ESE,112,5.8,-999.0,76,-99.99,,,0.00,Acu-Link.com,2013-03-22 15:47:00,
2013-03-22 11:02:00,39.0,32.4,29.77,ESE,112,5.3,-999.0,77,-99.99,,,0.00,Acu-Link.com,2013-03-22 16:02:00,
2013-03-22 11:17:00,39.9,32.3,29.76,ESE,112,5.3,-999.0,74,-99.99,,,0.00,Acu-Link.com,2013-03-22 16:17:00,
2013-03-22 11:32:00,39.9,31.6,29.77,ESE,112,3.7,-999.0,72,-99.99,,,0.00,Acu-Link.com,2013-03-22 16:32:00,
2013-03-22 11:47:00,40.3,31.3,29.77,ESE,112,5.3,-999.0,70,-99.99,,,0.00,Acu-Link.com,2013-03-22 16:47:00,
2013-03-22 12:17:00,40.5,31.1,29.77,ESE,112,6.3,-999.0,69,-99.99,,,0.00,Acu-Link.com,2013-03-22 17:17:00,
2013-03-22 12:33:00,40.5,31.1,29.77,ESE,112,5.3,-999.0,69,-99.99,,,0.00,Acu-Link.com,2013-03-22 17:33:00,
2013-03-22 12:48:00,40.8,31.8,29.78,SE,135,4.7,-999.0,70,-99.99,,,0.00,Acu-Link.com,2013-03-22 17:48:00,
2013-03-22 13:03:00,41.5,32.1,29.77,SE,135,6.3,-999.0,69,-99.99,,,0.00,Acu-Link.com,2013-03-22 18:03:00,
2013-03-22 13:18:00,41.5,32.1,29.76,ESE,112,6.3,-999.0,69,-99.99,,,0.00,Acu-Link.com,2013-03-22 18:18:00,
2013-03-22 13:33:00,41.5,31.4,29.75,ESE,112,4.7,-999.0,67,-99.99,,,0.00,Acu-Link.com,2013-03-22 18:33:00,
2013-03-22 13:48:00,42.3,32.5,29.75,SE,135,5.3,-999.0,68,-99.99,,,0.00,Acu-Link.com,2013-03-22 18:48:00,
2013-03-22 14:03:00,42.3,32.9,29.75,ESE,112,6.8,-999.0,69,-99.99,,,0.00,Acu-Link.com,2013-03-22 19:03:00,
2013-03-22 14:18:00,42.4,33.0,29.74,ESE,112,4.7,-999.0,69,-99.99,,,0.00,Acu-Link.com,2013-03-22 19:18:00,
2013-03-22 14:33:00,42.4,32.6,29.74,ESE,112,6.8,-999.0,68,-99.99,,,0.00,Acu-Link.com,2013-03-22 19:33:00,
2013-03-22 14:49:00,42.8,33.0,29.73,SE,135,6.8,-999.0,68,-99.99,,,0.00,Acu-Link.com,2013-03-22 19:49:00,
2013-03-22 15:04:00,43.2,34.1,29.73,ESE,112,3.7,-999.0,70,-99.99,,,0.00,Acu-Link.com,2013-03-22 20:04:00,
2013-03-22 15:19:00,43.2,33.7,29.73,East,90,4.2,-999.0,69,-99.99,,,0.00,Acu-Link.com,2013-03-22 20:19:00,
2013-03-22 15:34:00,43.5,33.7,29.72,East,90,7.3,-999.0,68,-99.99,,,0.00,Acu-Link.com,2013-03-22 20:34:00,
2013-03-22 15:49:00,43.7,34.6,29.71,ESE,112,6.3,-999.0,70,-99.99,,,0.00,Acu-Link.com,2013-03-22 20:49:00,
2013-03-22 16:04:00,43.5,34.4,29.72,SE,135,6.8,-999.0,70,-99.99,,,0.00,Acu-Link.com,2013-03-22 21:04:00,
2013-03-22 16:19:00,43.7,34.9,29.71,ESE,112,3.7,-999.0,71,-99.99,,,0.00,Acu-Link.com,2013-03-22 21:19:00,
2013-03-22 16:34:00,43.9,34.4,29.72,East,90,3.2,-999.0,69,-99.99,,,0.00,Acu-Link.com,2013-03-22 21:34:00,
2013-03-22 16:49:00,43.7,34.2,29.72,East,90,4.2,-999.0,69,-99.99,,,0.00,Acu-Link.com,2013-03-22 21:49:00,
2013-03-22 17:05:00,43.5,34.4,29.71,ESE,112,5.3,-999.0,70,-99.99,,,0.00,Acu-Link.com,2013-03-22 22:05:00,
2013-03-22 17:20:00,43.2,33.4,29.71,East,90,4.7,-999.0,68,-99.99,,,0.00,Acu-Link.com,2013-03-22 22:20:00,
2013-03-22 17:35:00,43.2,33.7,29.72,East,90,3.7,-999.0,69,-99.99,,,0.00,Acu-Link.com,2013-03-22 22:35:00,
2013-03-22 17:50:00,43.0,33.9,29.72,ESE,112,4.7,-999.0,70,-99.99,,,0.00,Acu-Link.com,2013-03-22 22:50:00,
2013-03-22 18:05:00,43.0,33.9,29.73,ESE,112,2.2,-999.0,70,-99.99,,,0.00,Acu-Link.com,2013-03-22 23:05:00,
2013-03-22 18:20:00,42.8,32.6,29.73,ESE,112,3.7,-999.0,67,-99.99,,,0.00,Acu-Link.com,2013-03-22 23:20:00,
2013-03-22 18:35:00,42.6,32.8,29.73,ESE,112,3.7,-999.0,68,-99.99,,,0.00,Acu-Link.com,2013-03-22 23:35:00,
2013-03-22 18:50:00,42.3,33.6,29.73,ESE,112,4.2,-999.0,71,-99.99,,,0.00,Acu-Link.com,2013-03-22 23:50:00,
2013-03-22 19:05:00,42.3,33.2,29.73,East,90,3.2,-999.0,70,-99.99,,,0.00,Acu-Link.com,2013-03-23 00:05:00,
2013-03-22 19:21:00,42.3,33.2,29.73,ESE,112,3.2,-999.0,70,-99.99,,,0.00,Acu-Link.com,2013-03-23 00:21:00,
2013-03-22 20:06:00,41.9,33.2,29.73,East,90,4.7,-999.0,71,-99.99,,,0.00,Acu-Link.com,2013-03-23 01:06:00,
2013-03-22 20:21:00,41.7,33.0,29.74,ENE,67,4.2,-999.0,71,-99.99,,,0.00,Acu-Link.com,2013-03-23 01:21:00,
2013-03-22 20:37:00,41.7,33.0,29.74,East,90,5.3,-999.0,71,-99.99,,,0.00,Acu-Link.com,2013-03-23 01:37:00,
2013-03-22 20:52:00,41.5,33.2,29.74,ENE,67,4.7,-999.0,72,-99.99,,,0.00,Acu-Link.com,2013-03-23 01:52:00,
2013-03-22 21:07:00,41.4,33.1,29.74,East,90,3.7,-999.0,72,-99.99,,,0.00,Acu-Link.com,2013-03-23 02:07:00,
2013-03-22 21:23:00,41.4,33.1,29.74,East,90,2.7,-999.0,72,-99.99,,,0.00,Acu-Link.com,2013-03-23 02:23:00,
2013-03-22 21:38:00,41.2,33.6,29.74,ESE,112,3.7,-999.0,74,-99.99,,,0.00,Acu-Link.com,2013-03-23 02:38:00,
2013-03-22 21:53:00,41.2,33.6,29.75,East,90,3.7,-999.0,74,-99.99,,,0.00,Acu-Link.com,2013-03-23 02:53:00,
2013-03-22 22:08:00,41.2,33.9,29.74,East,90,4.7,-999.0,75,-99.99,,,0.00,Acu-Link.com,2013-03-23 03:08:00,
2013-03-22 22:23:00,41.0,34.0,29.74,ESE,112,3.2,-999.0,76,-99.99,,,0.00,Acu-Link.com,2013-03-23 03:23:00,
2013-03-22 22:38:00,41.0,34.0,29.74,ESE,112,2.7,-999.0,76,-99.99,,,0.00,Acu-Link.com,2013-03-23 03:38:00,
2013-03-22 22:56:00,40.8,34.5,29.74,ESE,112,2.2,-999.0,78,-99.99,,,0.00,Acu-Link.com,2013-03-23 03:56:00,
2013-03-22 23:11:00,40.8,33.8,29.74,East,90,2.2,-999.0,76,-99.99,,,0.00,Acu-Link.com,2013-03-23 04:11:00,
2013-03-22 23:26:00,41.0,33.7,29.74,East,90,1.7,-999.0,75,-99.99,,,0.00,Acu-Link.com,2013-03-23 04:26:00,
2013-03-22 23:41:00,41.0,34.0,29.75,East,90,2.7,-999.0,76,-99.99,,,0.00,Acu-Link.com,2013-03-23 04:41:00,